Home   Weather   Vestby   Past weeks

Flag for Norway Past Weather in Vestby, Norway — Yesterday and Last 2 Weeks

Now
35 °F

Clear.


Feels Like: 31 °F
Forecast: 30 / 47 °F
Wind: 5 mph from North

Location: Rygge

Current Time: Apr 26, 2017 at 6:34:03 am

Latest Report: Apr 26, 2017 at 5:00 am


Visibility: 31 mi

Pressure: 29.72 "Hg

Humidity: 61%

Dew Point: 23 °F

Location of VestbyLocation

Past Weather in Vestby — Graph

°F

Vestby Temperature Yesterday

Maximum temperature yesterday: 44 °F (at 7:00 pm)
Minimum temperature yesterday: 33 °F (at 5:00 am)
Average temperature yesterday: 38 °F

High & Low Weather Summary for the Past Weeks

 TemperatureHumidityPressure
High56 °F (Apr 21, 1:00 pm)98% (Apr 14, 1:00 am)30.56 "Hg (Apr 14, 1:00 am)
Low24 °F (Apr 16, 6:00 am)22% (Apr 22, 2:00 pm)29.26 "Hg (Apr 24, 4:00 pm)
Average40 °F66%29.86 "Hg
* Reported Apr 11 5:00 am — Apr 26 5:00 am, Vestby, Weather by CustomWeather, © 2017

Note: Actual official high and low records may vary slightly from our data, if they occured in-between our weather recording intervals... More about our weather records

Advertising

Vestby Weather History for the Previous 24 Hours

Scroll right to see more
 ConditionsComfort  
Time TempWeatherWind HumidityBarometerVisibility
5:00 am
Wed, Apr 26
35 °FClear.5 mph61%29.72 "Hg31 mi
4:00 am36 °FClear.5 mph61%29.70 "Hg31 mi
3:00 am37 °FPassing clouds.6 mph58%29.70 "Hg31 mi
2:00 am37 °FClear.6 mph57%29.68 "Hg31 mi
1:00 am38 °FClear.7 mph58%29.66 "Hg31 mi
12:00 am38 °FClear.5 mph60%29.65 "Hg31 mi
11:00 pm
Tue, Apr 25
38 °FClear.5 mph62%29.64 "Hg31 mi
10:00 pm39 °FClear.7 mph59%29.62 "Hg31 mi
9:00 pm41 °FPassing clouds.7 mph57%29.60 "Hg31 mi
8:00 pm43 °FPartly sunny.6 mph56%29.58 "Hg31 mi
7:00 pm44 °FPartly sunny.8 mph54%29.57 "Hg31 mi
6:00 pm42 °FOvercast.9 mph63%29.55 "Hg31 mi
5:00 pm42 °FOvercast.9 mph57%29.54 "Hg31 mi
4:00 pm40 °FPartly sunny.10 mph67%29.50 "Hg25 mi
3:00 pm42 °FOvercast.8 mph58%29.50 "Hg31 mi
2:00 pm42 °FPartly sunny.10 mph55%29.47 "Hg31 mi
1:00 pm40 °FOvercast.12 mph60%29.47 "Hg28 mi
12:00 pm40 °FOvercast.10 mph65%29.44 "Hg25 mi
11:00 am37 °FOvercast.10 mph74%29.44 "Hg31 mi
10:00 am37 °FOvercast.8 mph79%29.41 "Hg31 mi
9:00 am34 °FLight snow. Overcast.8 mph88%29.41 "Hg8 mi
8:00 am35 °FSnow flurries. Overcast.9 mph84%29.38 "Hg31 mi
7:00 am34 °FOvercast.8 mph88%29.35 "Hg22 mi
6:00 am33 °FSnow flurries. Overcast.7 mph91%29.35 "Hg22 mi
Weather by CustomWeather, © 2017

See weather overviewHow to use our weather pages